Regional Weather Roundup
Issued by NWS

Home | Current Version | Previous Version | Text Only | Print | Product List | Glossary On
Versions: 1 2 3 4 5 6 7 8 9 10 11 12 13 14 15 16 17 18 19 20 21 22 23 24 25 26 27 28 29 30 31 32 33 34 35 36 37 38 39 40 41 42 43 44 45 46 47 48 49 50
493
ASUS43 KTOP 050708
RWRKS

WEATHER ROUNDUP FOR KANSAS
NATIONAL WEATHER SERVICE GOODLAND KS
200 AM CDT THU MAY 05 2016

NOTE:  "FAIR" INDICATES FEW OR NO CLOUDS BELOW 12,000 FEET WITH NO
SIGNIFICANT WEATHER AND/OR OBSTRUCTIONS TO VISIBILITY.

KSZ001>006-013>018-027>032-041>047-050800-
NORTHWEST KANSAS

CITY           SKY/WX    TMP DP  RH WIND       PRES   REMARKS
GOODLAND       CLEAR     55  42  61 S12       30.12S
HAYS           CLEAR     46  37  71 NW5       30.09S
HILL CITY      CLEAR     45  41  86 NW3       30.10S
RUSSELL        CLEAR     51  41  68 W5        30.07R
$$

KSZ061>065-074>080-084>089-050800-
SOUTHWEST KANSAS

CITY           SKY/WX    TMP DP  RH WIND       PRES   REMARKS
DODGE CITY     CLEAR     49  41  74 SW5       30.11S
ELKHART          N/A     59  41  51 S7          N/A
GARDEN CITY    CLEAR     52  44  74 S7        30.11S
GREAT BEND     CLEAR     46  39  76 W3        30.09R
LIBERAL        CLEAR     55  43  62 SE6       30.12F
PRATT          CLEAR     47  42  81 CALM      30.09S
$$

KSZ066>073-081>083-090>101-050800-
SOUTHEAST KANSAS

CITY           SKY/WX    TMP DP  RH WIND       PRES   REMARKS
CHANUTE        PTCLDY    47  41  80 NW3       30.03S
COFFEYVILLE    CLEAR     49  44  83 CALM      30.03S
HUTCHINSON     CLEAR     44  40  85 NW5       30.06F
MEDICINE LODGE   N/A     47  44  90 N3        30.07S
NEWTON         CLEAR     50  34  53 NW5       30.07S
PARSONS        CLEAR     45  43  93 CALM      30.04S
WICHITA INTL   CLEAR     50  41  71 NW5       30.05S
WICHITA JABRA  CLEAR     53  38  56 NW6       30.05R
WICHITA MCCONL CLEAR     54  40  58 N2        30.05S
WINFIELD       CLEAR     49  41  74 CALM      30.34F
$$

KSZ007>012-019>026-033>040-048>060-102>105-050800-
NORTHEAST KANSAS

CITY           SKY/WX    TMP DP  RH WIND       PRES   REMARKS
CONCORDIA      CLEAR     50  35  56 NW3       30.06S
EMPORIA        CLEAR     51  41  68 NW5       30.04S
LAWRENCE       CLEAR     43  40  89 NW7       30.02F
MANHATTAN      CLEAR     45  40  82 CALM      30.05R
MARYSVILLE     CLEAR     46  41  81 NW3       30.05S
OLATHE IND     CLEAR     50  39  66 W5        30.02F
OLATHE EXE     CLEAR     50  39  66 W5        30.01F
SALINA         CLEAR     48  41  76 CALM      30.06S
TOPEKA BILLARD CLEAR     48  43  82 CALM      30.03
TOPEKA FORBES  CLEAR     48  41  76 CALM      30.03S
$$




USA.gov is the U.S. government's official web portal to all federal, state and local government web resources and services.